Starlink 30254

operational
NORAD ID: 57533 Int'l Des: 2023-115 Owner: SPXS Country: US Constellation: starlink
LEOCIRCULAR

About Starlink 30254

Description loading...

Live Position

Loading 3D Globe...

Upcoming Passes

Altitude History

Altitude vs Time

uPlot chart will show altitude changes over time

Two-Line Element Set

1 57533U 23115N 25306.47130516 .00002817 00000-0 11187-3 0 9997
2 57533 43.0029 101.6216 0001197 280.0427 80.0289 15.27572958125906
Epoch: Nov 2, 2025 • Age: 36 hours

Current Status

Altitude 491.1 km
Velocity 7.62 km/s
Sub-Earth Point -31.16°S, 72.53°W
Launch Date Aug 8, 2023
Age 2.2 years
Type internet

Technical Details

Classification Payload
Mass 730.00 kg
Dry Mass 700.00 kg
Total Mass 730.00 kg
Length 0.30 m
Diameter 4.10 m
Span 29.00 m
Shape Box + pan
Manufacturer SPXS
Bus Type Starlink V2M
Phase Status In Orbit
Owner/State SPXS/US

Large Constellations

Loading constellations...